GFSMA_925_thetae_075.txt.gz
Theta_e
327 327 326 326 324 326 327 326 323 320 327 328 328 326 326 325 324 323 322 320 321 325 323 320 319 318 317 317 316 315 314 314 314 313 313 313 312 313 313 313 313 313 313
329 329 327 327 326 328 326 327 328 329 329 329 328 325 326 324 323 321 318 317 317 322 322 320 318 318 317 315 315 313 312 312 312 311 311 311 311 311 311 312 312 312 312
331 330 328 326 327 328 329 327 328 329 329 329 328 325 324 323 322 320 317 316 318 321 321 321 318 317 316 315 314 312 310 309 308 308 308 308 308 309 310 310 311 311 311
332 331 331 328 327 328 328 327 328 329 329 328 328 326 323 322 321 319 316 317 319 320 321 320 318 316 315 315 314 312 309 308 307 305 305 306 306 307 308 309 309 310 310
332 331 330 331 331 329 329 327 327 328 329 328 327 326 321 320 318 316 316 316 319 321 320 319 317 314 314 314 313 311 309 306 306 303 304 305 305 306 307 308 309 310 310
332 332 331 330 331 333 332 330 328 327 327 328 326 324 322 318 316 315 315 316 317 319 319 317 316 314 310 312 311 311 309 306 304 304 304 305 305 306 307 308 309 310 310
333 332 331 330 331 332 333 332 331 328 327 327 326 321 320 317 315 315 315 314 314 315 317 316 313 311 310 307 310 309 308 307 304 303 303 304 305 306 308 308 308 308 309
334 333 332 331 331 332 332 332 332 330 328 327 324 316 312 313 314 313 313 313 312 313 313 312 311 310 309 307 305 306 306 305 303 302 304 305 305 305 306 306 307 307 308
338 334 332 332 332 332 332 332 331 331 329 328 326 321 313 314 310 312 312 311 311 311 312 312 310 309 307 306 303 302 301 300 301 303 303 303 303 304 305 305 306 306 307
337 338 337 335 332 332 332 332 332 331 330 327 324 323 322 318 311 311 309 309 309 309 310 310 309 307 306 303 301 299 297 297 299 300 301 302 302 303 304 304 305 305 306
334 332 332 333 334 335 333 333 332 331 330 328 326 324 319 319 313 309 310 307 307 308 309 309 308 307 304 301 299 298 297 297 298 298 299 300 301 302 302 303 303 304 303
335 333 334 333 333 332 333 334 333 332 331 330 328 325 322 319 317 310 308 305 305 304 305 306 304 303 300 298 298 297 297 296 295 296 297 298 299 301 301 301 301 301 300
330 330 332 332 332 330 328 328 328 328 328 330 329 326 323 320 319 317 312 305 303 300 301 302 299 298 297 296 296 296 297 298 297 296 297 298 299 299 299 298 299 299 298
327 329 331 331 331 330 327 327 326 326 326 326 328 326 323 319 318 317 315 308 301 297 295 296 296 297 297 299 296 297 297 297 295 296 295 297 298 297 296 295 296 296 296
323 325 327 328 326 324 322 323 323 324 325 325 325 324 322 318 314 311 310 310 310 302 299 295 296 296 297 295 297 297 296 295 294 293 294 295 295 294 294 294 294 294 294
316 318 318 318 319 319 318 317 317 317 317 317 319 319 317 314 310 308 306 305 304 304 302 297 294 294 294 295 295 294 294 293 291 293 293 292 292 292 292 292 293 293 293
312 313 312 312 311 311 311 311 312 311 312 313 313 311 309 305 304 302 302 301 301 302 299 293 293 294 294 294 293 292 292 292 292 290 290 290 291 291 291 291 291 292 292
307 308 308 308 307 306 307 306 307 307 307 307 305 303 301 300 299 298 298 298 298 298 297 292 291 292 292 292 292 292 289 287 288 288 289 290 290 289 290 290 291 291 291
301 302 302 301 301 301 301 301 302 302 301 299 298 298 296 296 295 295 295 294 295 295 295 293 291 291 291 289 288 288 288 288 288 287 287 287 288 288 289 290 290 290 290
298 298 297 297 296 296 297 297 297 296 296 295 295 294 294 293 293 293 293 292 292 292 291 291 289 289 289 289 288 288 288 288 287 286 286 286 287 287 287 288 288 288 288
294 294 294 294 294 294 294 294 294 293 292 292 292 292 292 292 292 291 291 290 289 289 289 289 288 289 289 288 288 287 286 286 285 285 286 286 286 286 286 286 286 286 288
292 293 293 293 292 292 291 292 292 292 292 292 291 291 290 290 289 289 289 289 288 288 288 288 288 288 287 287 286 286 285 285 284 285 285 285 286 286 286 286 286 287 288
292 292 291 291 292 292 292 292 292 292 291 290 290 289 289 287 286 285 286 287 287 287 287 287 287 287 286 285 285 285 285 285 285 285 284 285 285 285 286 285 285 286 287
290 289 290 291 291 291 290 290 291 290 289 288 287 285 285 285 285 287 287 287 287 287 287 286 286 285 285 284 284 285 285 285 284 284 284 284 285 285 284 285 285 285 286
288 288 289 289 288 288 286 286 285 285 284 284 284 285 285 285 287 287 286 286 286 285 285 284 284 285 286 286 287 286 285 284 283 283 283 283 284 283 283 283 284 284 284
288 288 287 286 287 287 288 287 286 285 285 284 284 284 285 285 285 284 284 283 283 283 283 284 285 284 284 284 284 284 284 284 283 283 283 283 283 282 282 282 283 282 282

GFSMA_925_thetae_078.txt.gz
Theta_e
328 327 325 326 328 328 327 329 329 323 320 327 327 326 325 326 327 326 325 323 322 323 325 323 321 319 319 319 317 316 316 316 315 315 315 314 314 314 314 314 314 314 314
331 328 327 326 325 325 323 324 324 323 319 327 328 327 325 325 325 324 323 321 320 321 322 323 321 320 319 318 316 315 315 315 314 314 313 313 313 313 313 313 313 313 313
332 328 328 327 326 326 326 325 326 327 328 328 328 327 325 325 323 322 320 319 319 319 320 322 321 320 319 317 317 314 313 312 312 311 311 310 310 311 311 311 312 312 312
333 330 329 329 327 327 328 328 327 327 328 328 329 328 327 323 323 322 320 318 317 317 320 321 321 320 319 317 317 315 312 311 310 309 308 308 308 309 309 309 310 310 311
334 331 331 330 329 327 327 328 328 327 328 328 328 328 327 324 322 322 320 318 316 317 319 320 320 318 318 317 317 316 313 310 309 308 307 307 306 307 308 309 309 310 311
332 332 332 331 330 330 327 327 327 327 327 327 328 327 326 324 321 319 319 317 316 317 319 320 320 319 316 315 316 315 314 310 308 306 306 306 306 307 307 308 309 310 310
332 331 331 331 330 330 330 329 330 328 327 326 327 325 324 323 321 318 316 316 315 316 318 320 320 318 316 313 313 314 313 311 308 306 305 305 306 306 307 309 308 309 309
334 332 332 332 331 330 330 331 332 331 330 328 325 318 317 319 320 320 316 314 314 315 315 318 319 317 315 313 310 310 312 311 309 306 305 305 306 306 306 307 307 308 308
336 333 332 332 331 330 330 331 332 331 330 328 326 324 313 315 312 316 316 314 312 313 313 314 316 316 314 311 310 308 309 308 307 304 305 305 305 305 305 306 307 307 307
338 338 337 333 331 331 330 331 331 331 330 328 325 324 322 317 313 314 312 312 312 310 311 311 312 313 311 310 308 306 306 305 302 303 303 303 303 304 304 305 305 306 307
333 333 334 334 334 333 334 332 331 330 330 329 328 326 323 319 314 312 317 311 309 308 308 309 309 310 310 310 306 303 302 300 299 299 300 301 303 304 304 305 305 305 305
335 335 333 332 332 331 331 332 332 331 331 331 328 327 325 321 319 314 310 308 308 306 307 307 308 309 309 305 303 304 301 299 299 299 298 299 300 300 301 303 303 303 303
333 335 332 332 333 332 331 330 327 328 328 328 327 327 327 325 323 320 317 310 307 302 301 303 304 305 305 304 302 299 298 299 299 298 298 300 301 301 301 301 302 302 302
327 329 330 331 332 331 331 329 326 325 325 325 326 326 326 325 321 320 317 313 304 300 298 300 300 298 299 298 298 298 299 298 298 298 298 299 299 298 299 299 298 298 297
324 327 329 329 329 326 324 323 322 321 321 320 320 320 321 320 318 316 314 313 311 306 301 298 297 296 296 296 297 298 298 297 296 297 296 296 296 297 297 295 295 295 295
317 319 321 321 320 320 321 320 317 316 316 315 314 315 313 312 310 309 308 307 307 308 304 299 296 296 295 296 296 295 295 296 296 294 294 295 294 293 293 293 293 293 293
312 313 312 312 312 311 312 311 311 311 310 309 309 308 308 307 305 303 302 302 302 302 300 294 295 294 294 294 295 294 295 293 292 292 292 292 291 292 292 292 292 292 292
307 308 308 307 307 307 307 305 306 306 306 306 305 305 303 301 301 300 300 299 298 298 297 294 292 292 292 293 292 292 292 290 288 288 289 290 291 290 290 290 291 291 292
302 302 303 303 302 302 302 303 303 302 301 300 300 300 299 298 297 296 296 295 295 295 295 294 291 291 291 291 290 288 288 288 288 288 288 287 287 288 289 290 291 291 290
299 299 298 298 298 298 298 298 298 297 297 296 295 295 295 294 294 293 293 293 293 293 292 291 290 289 289 288 288 288 288 288 287 287 286 285 286 286 287 287 288 288 287
295 295 295 295 295 295 295 296 295 294 293 292 292 292 292 292 292 293 292 291 291 291 290 289 288 288 288 288 288 287 286 286 286 285 285 286 286 286 286 286 286 286 286
293 293 292 292 292 292 292 293 293 293 293 292 291 291 291 291 290 290 290 289 288 288 288 289 288 288 287 287 286 285 285 285 285 285 285 286 286 287 286 286 286 286 287
292 292 292 292 292 292 292 292 293 293 292 291 290 290 289 286 285 285 286 287 287 288 287 287 287 286 286 286 285 284 285 285 285 285 284 284 286 286 285 285 285 285 287
291 291 292 292 292 291 291 291 291 291 290 287 285 285 285 285 286 287 286 287 286 286 286 286 286 285 285 284 284 284 285 285 284 284 284 283 284 284 284 284 284 285 286
290 291 291 290 288 288 286 285 284 284 284 284 284 285 285 286 287 286 285 286 286 285 284 285 285 285 286 286 287 286 286 285 283 283 283 283 283 283 282 283 284 284 284
289 288 287 287 287 288 288 286 285 285 285 284 284 285 285 285 285 284 284 283 283 283 283 283 284 284 283 283 284 284 284 284 283 282 283 283 283 282 282 282 283 282 283

GFSMA_925_thetae_081.txt.gz
Theta_e
321 323 326 325 328 330 329 328 329 329 323 319 323 323 323 324 326 326 327 326 325 325 325 324 322 321 320 320 319 317 317 317 316 316 317 315 316 315 315 315 315 316 315
329 326 325 324 327 327 327 326 325 327 323 319 326 327 326 325 325 325 326 325 324 324 323 324 323 322 320 320 318 317 316 316 316 315 315 314 314 314 314 314 314 314 314
332 330 328 327 327 325 325 324 324 325 325 320 324 327 327 326 325 325 324 324 322 322 321 322 324 322 321 320 319 317 316 315 315 313 313 312 312 312 312 312 312 312 313
334 332 330 328 328 326 326 325 326 326 327 327 328 328 328 327 325 324 322 321 320 320 320 319 321 323 321 320 319 318 315 313 312 312 311 310 310 310 310 310 310 311 311
336 333 332 329 329 328 326 327 327 327 327 327 327 328 328 328 326 323 322 321 320 319 318 317 319 320 320 320 319 319 317 313 311 310 309 308 308 308 309 309 309 310 311
334 334 333 331 329 329 328 326 327 328 327 326 327 327 328 327 326 324 322 321 320 318 317 317 319 320 320 318 319 318 318 316 311 310 308 308 307 307 308 308 309 310 311
332 333 333 332 330 330 330 329 327 327 327 326 325 326 326 326 325 324 322 320 319 317 316 316 318 319 320 319 317 317 317 316 312 308 307 306 306 307 307 309 309 309 310
333 332 332 331 331 331 330 330 329 327 327 327 325 320 321 323 325 325 324 321 318 315 315 315 317 319 320 319 317 314 315 315 314 310 307 306 306 307 307 307 308 308 309
333 333 332 332 331 330 330 330 330 330 329 329 328 325 317 319 314 321 320 319 317 314 313 313 315 318 320 318 316 313 312 312 312 309 306 306 306 306 306 306 307 308 308
338 337 336 334 332 331 330 330 330 329 329 328 327 325 325 320 317 318 317 316 318 318 317 313 312 312 315 317 316 312 310 309 309 308 305 305 304 305 305 306 305 307 308
336 336 336 336 335 335 332 331 331 330 329 328 328 327 325 321 317 314 321 317 313 313 312 310 309 309 310 312 313 312 309 308 307 305 304 303 303 302 304 304 304 304 305
334 334 334 334 333 333 332 332 332 332 331 330 328 327 326 322 318 316 314 317 312 313 315 311 309 309 308 308 309 309 308 305 304 302 302 302 303 303 303 304 306 305 304
327 331 335 334 332 331 331 330 330 329 327 328 328 327 326 325 325 322 319 318 310 307 306 309 307 306 306 307 307 307 307 303 303 302 302 304 303 303 304 305 302 304 304
322 327 331 334 332 331 330 329 329 327 325 324 325 324 325 324 322 321 319 316 307 304 302 304 304 303 303 304 304 303 303 302 301 300 300 301 303 301 300 300 301 301 300
325 327 327 329 329 329 328 327 325 322 321 320 318 318 318 318 318 316 314 313 312 310 305 300 299 297 298 299 299 300 300 299 299 298 298 298 298 298 298 297 297 297 297
319 322 324 325 324 322 320 320 320 320 316 314 314 313 312 312 312 312 310 309 307 307 306 299 297 297 296 296 297 297 297 297 297 296 296 296 296 296 295 294 294 294 294
313 314 315 315 314 314 314 315 315 312 308 308 307 306 305 305 305 306 307 305 304 304 301 295 296 295 295 295 295 294 294 294 294 294 293 294 293 293 293 293 293 293 293
308 308 308 308 307 307 307 307 306 306 306 304 304 303 302 302 303 301 301 300 299 300 299 295 293 293 293 293 292 292 292 292 290 289 289 290 291 291 291 291 291 291 292
302 303 303 303 303 304 305 304 304 302 302 301 301 300 299 298 297 296 297 296 296 296 296 295 291 291 291 291 291 291 290 288 288 288 288 288 288 288 289 289 291 291 291
299 300 300 300 300 300 300 300 300 299 297 296 296 295 295 295 294 294 294 293 293 293 293 292 291 290 289 289 288 288 288 288 288 287 287 286 285 286 286 288 288 288 288
296 296 296 296 296 296 296 297 297 295 294 293 292 293 293 292 292 292 292 292 292 292 291 289 289 288 288 288 287 287 286 286 286 285 285 285 286 286 286 286 286 286 286
293 293 293 293 292 293 293 294 294 293 291 291 290 291 291 291 290 291 290 289 289 288 288 288 288 288 287 286 286 285 285 284 284 285 285 285 285 286 286 286 286 286 287
293 292 292 292 292 292 292 292 293 293 292 291 290 289 287 286 286 286 287 286 288 288 287 286 286 286 286 285 285 284 284 284 284 285 284 284 285 286 285 285 285 285 286
292 292 292 292 292 291 291 292 291 290 289 286 285 284 285 286 287 286 286 286 286 286 286 286 285 284 284 284 284 283 285 285 285 284 284 283 284 284 285 285 284 285 286
292 292 292 290 288 287 285 285 284 284 284 284 285 285 285 286 287 286 284 285 285 285 284 285 285 285 286 286 286 285 285 285 284 283 283 283 283 283 283 284 284 284 285
290 290 287 287 288 288 287 285 285 285 284 284 284 285 285 285 285 284 283 282 282 283 283 283 283 284 283 283 283 284 284 283 283 282 283 282 283 282 281 282 283 284 283

GFSMA_925_thetae_084.txt.gz
Theta_e
321 328 330 331 329 331 330 329 328 329 329 322 318 319 321 323 325 326 326 327 327 326 329 326 324 322 321 321 319 318 317 317 317 317 317 316 316 315 316 315 316 316 316
332 320 322 325 324 326 328 327 326 326 328 326 318 324 325 326 325 325 325 326 326 325 325 327 326 324 322 321 320 318 317 317 316 316 315 315 314 314 314 314 314 314 314
333 330 325 325 325 326 326 327 326 325 324 323 318 323 327 327 327 325 324 324 325 324 323 325 326 325 323 322 321 319 317 316 316 315 314 313 312 313 312 312 312 312 313
334 334 329 329 327 327 326 326 325 325 325 326 327 326 327 327 328 327 326 324 323 323 322 321 322 323 324 323 321 320 318 315 314 313 312 310 310 310 310 310 311 311 311
335 335 333 332 330 328 327 326 326 326 327 326 326 327 327 327 327 328 327 324 322 321 320 320 320 320 321 322 322 321 320 316 313 311 310 309 308 308 309 309 310 310 311
335 335 335 333 332 329 328 327 326 326 327 327 327 326 326 327 327 327 327 326 323 321 319 319 319 319 320 320 321 321 320 319 314 312 310 309 308 308 308 308 309 311 311
336 335 334 334 333 331 329 328 327 326 326 326 326 326 326 327 327 326 326 326 324 322 319 318 317 319 319 320 320 320 320 320 317 311 309 307 307 307 308 309 309 309 310
335 332 332 333 333 332 330 328 328 327 327 326 325 321 322 325 326 326 325 325 324 323 321 317 316 316 317 320 320 318 317 318 318 312 309 308 307 307 307 308 308 308 308
332 331 331 331 331 331 330 330 329 328 328 327 326 326 320 322 317 324 324 324 323 321 318 315 313 314 315 318 320 319 317 315 313 314 311 308 307 307 307 305 305 307 308
337 336 333 332 331 331 330 330 330 329 328 328 327 326 325 324 321 321 321 320 318 320 319 316 314 312 311 313 316 318 317 315 312 312 310 308 308 306 305 304 305 306 305
337 337 337 336 335 334 334 332 331 329 328 328 327 327 325 323 321 316 322 320 318 318 316 318 314 310 309 309 312 314 315 314 312 311 310 308 307 306 306 305 307 307 307
336 335 335 334 334 333 333 334 333 332 331 330 329 328 326 323 319 316 315 316 317 318 316 316 315 311 309 308 308 309 311 312 310 309 308 307 306 306 306 307 306 307 308
326 328 330 332 333 333 332 331 331 331 330 327 325 326 326 326 325 322 320 318 314 311 313 311 310 309 308 306 306 307 308 309 308 307 306 307 307 307 306 305 305 304 305
317 319 324 329 333 333 331 331 329 329 327 327 325 324 323 324 322 321 319 317 311 306 306 306 305 307 306 305 304 303 303 305 305 304 306 305 302 302 302 302 301 301 301
321 323 325 325 328 328 328 328 328 327 324 320 319 319 317 316 316 316 314 315 313 311 307 302 302 302 303 301 301 301 302 303 303 302 300 299 299 299 299 299 298 298 298
319 319 321 323 323 324 324 323 322 319 317 318 316 311 311 310 311 311 311 311 309 309 306 302 300 300 298 297 298 299 300 301 300 299 298 297 297 297 297 296 296 296 296
313 314 315 316 316 316 316 316 315 314 316 314 309 307 306 305 305 304 305 304 304 304 303 296 296 295 295 295 296 296 296 296 296 296 295 295 295 295 294 294 294 293 293
309 309 309 309 309 309 309 309 310 309 307 305 304 304 302 302 302 302 302 303 301 300 299 296 293 293 293 293 293 293 293 293 293 294 291 291 291 292 292 291 291 292 292
303 304 304 305 305 305 306 305 305 303 303 302 301 301 300 299 298 297 297 297 296 296 297 295 291 291 291 292 292 292 292 292 288 288 288 289 289 288 289 289 290 291 291
300 300 300 300 301 301 301 301 301 300 299 298 297 297 295 295 295 295 295 294 294 294 294 293 291 291 290 290 289 288 288 288 288 287 287 287 286 285 286 286 288 288 288
297 297 297 297 297 297 297 297 297 296 294 293 292 292 292 293 293 292 292 292 292 292 290 290 289 288 288 287 287 286 286 286 286 285 285 285 285 285 286 286 286 286 286
294 294 294 294 293 293 293 294 294 292 292 292 291 292 292 292 291 291 290 290 289 287 288 288 288 287 286 286 285 285 285 284 283 284 284 285 285 286 286 286 286 286 286
293 292 292 293 293 292 292 293 293 293 291 291 290 290 288 286 286 286 287 287 287 288 287 286 286 285 285 285 285 284 283 284 284 285 284 284 285 285 285 286 286 286 286
292 292 292 292 292 291 290 292 291 291 290 287 285 285 285 287 287 286 285 286 286 285 286 285 284 284 284 284 284 284 284 285 285 284 284 283 284 284 285 285 284 284 287
292 292 292 291 291 289 288 286 285 284 284 284 284 285 286 286 286 285 283 284 285 284 284 285 285 285 285 285 285 285 284 285 284 283 283 282 283 282 283 283 283 284 286
291 290 288 287 287 287 286 285 285 284 284 284 285 285 286 285 285 284 283 282 282 282 282 283 283 283 283 283 283 283 283 283 283 282 283 282 282 281 282 283 283 283 284

GFSMA_925_thetae_087.txt.gz
Theta_e
326 331 332 332 332 331 331 330 329 328 329 328 320 318 319 322 323 325 326 325 327 327 329 328 325 323 322 321 319 318 317 318 317 317 317 317 316 316 316 316 316 317 316
328 323 329 330 329 326 328 329 327 325 326 328 326 319 323 324 326 325 325 325 325 326 326 329 328 325 323 322 321 318 317 317 316 316 315 315 315 315 314 314 314 315 315
333 332 322 322 324 324 326 326 326 326 324 324 323 318 322 326 326 327 326 325 324 325 325 324 329 327 325 323 322 320 318 317 316 315 314 313 312 313 312 312 312 313 313
334 333 332 326 326 326 326 326 326 325 325 324 325 326 326 326 327 327 328 327 325 324 324 323 323 326 326 324 323 322 320 317 315 314 313 311 310 310 310 310 311 311 312
334 334 334 332 330 328 327 327 326 326 325 326 326 326 326 326 326 327 327 327 327 325 323 322 321 322 322 324 324 323 322 319 316 313 312 310 309 308 309 309 310 311 311
335 335 334 334 332 331 329 327 327 326 326 326 327 327 327 327 327 328 327 327 327 326 324 321 319 320 321 321 322 323 323 322 317 314 312 310 309 308 308 309 310 311 311
335 335 335 335 334 333 332 329 327 327 326 326 325 326 327 327 329 328 328 327 326 326 325 322 319 318 318 319 320 322 323 322 321 315 313 310 309 307 307 307 309 310 309
335 335 335 335 334 334 332 331 328 326 326 326 326 323 328 327 327 327 326 325 326 325 323 321 319 316 316 317 320 320 320 321 321 317 312 310 309 309 308 307 306 308 308
334 333 334 333 331 332 332 331 330 327 326 327 326 326 324 326 321 325 325 324 323 323 321 319 319 316 314 314 316 319 320 319 319 318 315 311 310 309 308 308 307 307 308
338 335 333 331 331 331 330 330 329 329 328 327 326 326 325 326 325 326 323 323 324 322 321 319 317 315 313 312 312 316 318 318 317 316 317 313 311 311 310 309 309 308 308
336 337 336 335 333 332 332 331 331 329 328 327 327 327 326 324 322 319 322 322 320 320 318 317 317 315 313 313 310 310 313 316 316 316 316 313 312 310 310 310 309 309 309
336 335 335 335 335 335 334 334 333 331 329 329 328 328 326 324 320 318 318 318 319 319 318 315 315 314 310 312 311 311 309 311 312 314 315 315 312 309 309 309 309 308 308
328 329 331 332 333 333 333 333 333 333 331 330 328 327 326 325 325 323 320 319 317 315 313 314 312 310 308 310 310 308 308 308 309 311 312 312 310 308 306 305 304 305 304
317 318 320 325 328 331 332 332 331 330 329 327 326 325 323 323 322 320 320 318 315 310 308 309 308 306 305 306 306 305 305 306 308 308 308 308 307 305 303 302 302 302 301
315 316 317 319 321 327 329 330 329 328 326 325 324 321 318 317 315 314 315 314 314 315 312 304 302 302 302 302 303 302 302 303 304 305 305 305 302 301 300 299 299 298 299
318 319 319 320 322 323 325 326 324 323 322 318 316 315 312 310 310 310 310 310 310 310 309 303 300 299 299 299 299 300 301 302 303 303 301 300 299 298 298 297 297 297 297
313 315 317 318 319 319 319 320 319 317 314 314 312 313 309 307 306 305 305 305 305 305 304 297 298 297 297 296 297 297 298 298 299 298 298 297 296 296 295 295 294 294 294
308 309 310 311 312 313 312 313 313 311 310 309 308 306 304 303 303 302 302 303 302 301 301 297 294 294 295 295 295 295 295 295 294 294 293 291 292 292 292 292 292 292 292
304 304 305 306 306 306 306 306 306 305 304 303 303 302 301 301 301 300 300 299 297 297 298 296 292 293 293 293 293 292 292 292 290 289 289 289 289 289 289 288 290 291 291
301 301 301 302 302 303 303 303 302 302 301 301 300 299 299 298 298 297 295 295 295 295 295 294 292 291 290 290 290 288 288 288 287 287 287 287 286 286 286 285 286 287 288
298 299 299 299 299 299 300 300 299 299 298 296 294 294 294 294 294 293 293 293 293 293 292 292 290 289 288 288 288 286 286 286 286 285 285 285 285 285 286 286 286 286 286
295 295 295 296 295 294 294 295 296 295 294 293 293 293 293 293 292 292 291 290 290 289 289 288 287 288 286 285 285 285 285 285 286 284 284 285 285 285 286 286 286 286 286
293 293 293 293 293 293 292 292 292 292 292 292 292 291 290 288 288 288 288 288 288 288 286 286 286 285 285 285 285 284 283 284 285 285 284 285 285 285 285 285 286 286 286
293 293 293 292 292 292 291 292 292 292 291 289 287 286 286 287 286 285 286 286 286 286 285 285 284 284 284 284 284 284 284 284 285 284 284 285 284 285 285 285 284 285 286
292 292 292 292 291 291 290 291 290 287 285 284 285 286 286 286 287 283 283 284 285 285 285 285 285 285 285 286 285 285 285 285 285 284 283 283 284 283 283 283 284 285 286
292 291 291 290 288 287 285 284 284 285 285 285 285 285 285 285 285 284 282 282 282 283 283 283 282 283 283 284 283 284 283 283 283 284 283 283 283 282 284 283 283 283 284

GFSMA_925_thetae_090.txt.gz
Theta_e
331 333 334 334 335 335 334 334 333 332 332 331 327 322 322 324 325 325 327 327 325 327 328 330 327 324 322 322 320 318 318 318 317 318 317 317 317 317 316 316 316 316 317
329 331 333 333 333 332 332 332 330 329 329 330 329 324 323 325 327 327 327 327 325 325 327 329 329 327 325 324 322 319 318 318 317 317 316 316 315 315 315 314 315 315 315
332 331 329 330 330 330 329 330 330 328 327 327 327 326 322 325 327 328 328 327 327 325 325 326 329 329 327 325 324 321 319 318 317 316 315 314 313 313 313 312 312 313 314
334 332 332 328 328 329 330 330 330 329 328 328 327 328 328 327 328 328 328 327 327 327 327 324 324 325 328 327 325 324 321 319 317 315 313 312 311 311 311 311 311 312 312
334 334 333 332 329 329 329 330 330 329 329 329 329 329 329 329 329 328 328 328 327 327 327 326 324 322 323 325 326 325 324 321 318 316 314 311 309 309 309 309 309 311 312
336 335 335 334 333 331 331 330 330 330 329 329 329 328 329 330 329 329 329 328 327 325 325 325 325 324 322 322 323 324 325 324 320 317 315 312 310 310 309 309 310 311 312
337 336 336 335 334 333 332 331 330 329 330 329 329 330 330 330 329 330 329 328 327 324 324 322 322 323 323 322 321 322 324 324 323 319 315 313 311 310 310 309 310 310 310
338 337 336 335 334 333 332 331 330 330 329 329 330 330 332 331 330 329 327 326 324 322 321 321 320 320 320 321 322 320 320 321 323 322 317 314 312 311 311 310 309 309 309
337 337 335 335 334 333 333 332 331 330 330 330 328 330 329 332 328 326 325 324 321 320 320 320 318 318 316 317 316 315 318 320 320 321 320 315 314 313 312 311 309 311 311
336 335 335 333 333 333 331 332 332 331 330 331 329 327 329 328 329 327 324 323 323 320 321 317 315 316 316 315 314 313 314 317 319 321 320 317 315 314 313 313 312 312 311
337 336 337 334 332 331 331 331 331 330 330 331 331 330 327 324 323 323 325 326 321 320 318 318 317 317 315 314 312 312 311 313 316 317 318 319 317 315 315 313 311 311 311
336 334 334 334 335 334 332 331 331 330 330 330 330 330 328 327 326 323 323 322 323 319 316 315 314 315 312 311 310 311 310 310 312 313 316 317 317 317 313 312 310 309 308
328 330 331 332 334 336 336 334 331 330 330 329 330 329 328 328 326 325 323 323 322 317 314 314 310 308 309 309 308 308 308 308 309 311 313 313 312 309 308 308 307 306 305
320 320 322 324 326 329 333 332 331 331 330 329 328 327 325 324 323 322 322 322 319 317 313 312 306 306 306 306 305 304 305 306 308 309 308 308 309 307 305 303 303 302 302
314 315 316 318 319 321 326 329 329 330 329 328 327 325 323 321 319 318 317 317 318 319 317 307 307 300 303 302 302 302 303 304 305 305 305 306 305 302 301 300 300 300 299
316 316 318 319 320 321 322 325 327 327 326 324 322 320 317 314 312 311 311 312 312 313 313 304 299 299 300 299 299 300 301 302 303 303 303 303 302 300 299 299 298 297 297
313 315 316 317 318 319 320 322 322 321 319 318 314 311 310 310 309 307 307 307 306 308 309 298 299 299 297 296 297 298 299 300 300 300 299 299 298 298 298 296 295 295 294
309 310 312 313 314 315 316 316 316 314 310 308 307 306 307 306 304 304 302 302 302 303 304 300 296 296 295 296 296 297 297 296 294 295 295 295 293 293 293 293 293 293 292
305 306 306 307 308 309 309 309 309 308 306 304 303 303 303 302 302 301 300 299 299 299 300 300 295 294 294 294 294 293 292 291 291 292 290 290 290 290 290 289 288 290 291
300 301 302 302 303 304 304 304 302 301 300 300 301 301 301 300 299 297 297 296 296 297 298 298 296 295 295 293 292 292 292 290 289 287 287 287 287 287 287 286 285 286 288
298 298 298 298 300 300 300 300 301 300 300 299 298 298 296 296 296 295 295 295 295 296 297 297 296 295 294 293 293 290 290 289 288 287 287 287 287 287 288 287 286 286 286
296 296 296 296 296 295 296 297 297 296 295 293 293 293 293 293 293 293 294 293 292 293 293 294 293 294 291 290 288 288 288 288 289 286 287 288 287 288 287 287 287 286 287
295 295 295 295 295 294 294 293 293 294 294 294 293 293 292 292 291 291 290 289 289 286 288 289 289 289 288 287 287 286 286 286 287 287 286 288 287 287 287 286 286 286 286
294 294 294 294 293 293 293 292 293 293 292 291 291 289 288 287 286 287 287 287 287 287 286 286 287 286 286 285 285 285 286 286 287 286 285 288 287 287 287 286 285 285 286
293 293 293 292 292 291 292 291 292 290 289 287 286 287 288 288 285 284 286 286 286 286 286 285 285 285 284 285 285 286 287 287 288 286 285 285 287 286 287 286 285 285 287
292 292 292 292 291 291 289 291 288 286 286 286 286 286 285 287 287 283 284 285 285 285 284 284 284 283 284 285 284 285 285 286 286 288 285 285 285 285 287 286 285 285 285

GFSMA_925_thetae_093.txt.gz
Theta_e
332 331 333 335 336 336 336 335 334 333 333 332 329 323 322 324 326 326 327 328 326 325 327 331 328 325 323 322 320 318 318 317 318 318 318 318 317 317 317 316 316 317 317
331 333 334 334 334 334 333 333 332 330 330 331 330 327 323 324 326 327 328 328 327 325 325 327 331 329 326 325 323 320 318 317 317 317 317 316 316 316 315 315 316 316 316
331 331 331 332 332 331 330 331 331 329 328 327 328 327 324 324 327 328 329 329 328 328 326 325 327 330 329 327 325 323 321 319 317 314 313 313 312 312 312 313 313 314 315
334 334 333 330 330 330 330 331 330 330 328 329 328 329 328 326 327 328 329 329 328 328 328 327 325 327 328 328 327 326 323 321 319 317 315 311 308 309 310 311 311 312 313
335 335 334 332 329 330 331 331 331 330 331 331 330 330 330 330 330 330 330 329 329 328 328 328 327 325 324 325 328 327 326 324 321 319 316 314 309 308 310 311 311 311 313
337 336 335 335 333 331 331 332 332 331 331 331 330 329 330 330 331 331 331 330 329 328 327 327 327 326 325 323 322 326 326 325 323 320 318 315 313 311 311 310 311 311 312
338 337 337 336 336 334 333 333 332 332 332 331 330 331 331 331 331 331 331 330 329 327 326 325 324 324 325 324 322 321 323 325 324 323 320 317 314 312 311 311 311 312 311
339 338 338 337 337 336 335 334 333 332 331 331 331 332 333 333 332 330 330 329 328 325 324 323 322 322 322 322 322 323 322 321 324 324 322 318 316 314 313 312 311 310 310
339 339 338 337 337 336 335 334 333 331 332 331 330 331 332 333 330 328 326 325 324 322 321 319 319 319 318 318 318 317 316 317 319 321 322 320 318 315 315 314 312 311 312
336 336 336 336 336 336 335 335 334 333 332 333 331 330 331 331 332 331 327 325 322 319 319 318 316 315 316 316 315 315 314 314 316 318 321 321 320 317 316 315 314 314 313
334 334 332 333 333 334 334 334 334 333 333 332 333 331 329 329 327 327 328 327 324 319 317 317 317 315 315 314 314 313 312 312 313 316 318 320 319 319 317 316 315 312 311
337 336 336 334 334 333 332 332 332 333 332 332 332 332 330 328 326 325 325 324 325 320 316 313 313 311 311 310 311 312 311 311 312 313 315 317 316 318 317 313 312 311 309
334 334 334 334 333 333 333 333 332 332 332 331 331 330 330 329 328 326 325 325 324 321 316 311 309 308 307 307 308 307 307 308 309 311 314 312 313 313 311 310 309 308 307
322 324 324 325 328 329 330 331 331 331 331 330 329 328 328 327 326 325 324 324 321 320 316 313 307 306 306 305 304 305 306 307 309 310 307 308 310 310 309 307 305 303 302
316 317 317 319 321 323 324 327 327 328 329 329 329 327 326 324 323 323 321 320 320 319 317 309 307 302 303 302 302 303 303 304 305 306 307 306 306 306 305 304 302 301 300
314 315 316 317 317 318 319 323 325 328 328 327 325 324 321 321 318 317 316 315 315 315 316 307 302 300 301 302 300 301 302 302 303 303 304 303 303 302 301 300 299 298 298
310 311 313 314 314 315 319 320 321 322 322 322 319 318 316 313 313 312 311 310 310 310 311 301 301 300 299 299 299 298 300 300 300 301 300 299 299 298 298 297 296 296 295
306 308 309 310 312 314 315 316 318 317 316 314 313 311 310 309 309 308 306 306 306 306 306 302 298 298 298 298 297 296 297 296 295 297 296 296 296 295 295 295 294 294 293
304 304 305 305 305 308 308 309 310 309 309 308 308 306 306 305 304 303 302 302 302 302 303 302 297 296 296 295 295 295 294 293 292 293 292 291 291 290 290 289 289 288 289
302 302 301 302 302 303 304 305 305 305 304 304 303 303 302 301 301 301 300 299 299 300 300 300 298 296 296 294 295 295 293 291 290 289 288 288 287 287 287 287 286 286 286
300 299 300 299 300 300 300 301 302 301 301 300 300 300 299 300 299 297 297 297 298 298 299 298 297 296 295 294 295 291 291 290 289 288 288 288 287 288 288 288 287 286 287
298 298 298 299 298 297 297 298 299 299 299 298 296 296 295 295 295 295 295 295 295 296 297 297 296 296 293 292 290 289 289 289 290 288 287 288 288 288 288 288 288 287 286
298 297 297 296 296 296 296 296 296 297 296 295 294 294 294 293 293 293 291 290 291 292 292 292 292 291 290 289 289 287 287 287 288 288 286 288 288 288 288 287 287 287 287
296 296 295 295 295 295 295 294 295 294 293 293 293 292 292 291 290 289 288 288 287 287 287 288 289 287 288 286 286 285 286 287 287 287 286 288 289 288 288 287 287 286 286
295 294 294 294 294 293 293 292 293 292 291 290 289 289 288 288 286 287 287 287 288 287 285 286 287 286 286 286 287 287 288 288 289 287 286 286 288 286 287 287 286 285 286
294 293 293 293 292 292 291 291 290 289 288 287 287 288 288 288 284 285 286 286 286 286 285 285 284 283 285 284 285 286 286 287 288 288 286 285 285 284 285 288 286 286 286

GFSMA_925_thetae_096.txt.gz
Theta_e
330 332 338 335 334 334 334 334 336 334 333 332 330 324 322 324 325 326 326 327 327 324 326 330 328 325 323 322 320 319 316 314 319 318 318 318 318 317 317 317 317 318 317
331 330 333 336 336 336 336 335 333 332 331 331 331 329 324 323 324 326 327 328 328 327 324 326 330 329 326 325 323 321 320 318 316 314 316 316 315 315 315 315 316 316 316
330 333 334 334 334 334 333 332 331 330 328 328 328 328 327 323 326 327 328 329 328 328 328 325 325 331 330 327 326 324 321 320 318 316 314 312 311 311 312 311 313 314 315
330 331 331 332 332 331 330 330 330 330 328 327 328 327 327 325 324 327 328 329 328 328 328 328 327 325 327 328 328 327 324 322 320 318 317 313 308 308 310 310 309 312 313
334 333 333 331 329 330 330 330 330 330 330 329 330 329 329 330 330 330 330 329 329 329 328 328 328 327 325 324 327 328 327 325 323 321 320 317 313 308 311 309 309 311 313
335 335 334 334 330 329 330 330 331 330 330 330 330 330 329 330 330 330 330 330 330 330 328 327 327 326 326 325 323 324 327 326 325 322 321 320 317 313 312 312 311 312 312
337 336 335 335 334 331 331 331 332 332 331 330 330 330 330 330 330 330 330 330 330 328 327 326 325 324 324 324 323 322 323 323 325 323 323 320 317 315 313 313 312 312 312
338 337 336 336 336 335 334 333 333 332 332 332 330 330 329 331 332 331 331 330 328 326 325 323 323 322 322 322 322 323 323 322 322 323 323 322 320 317 315 314 313 312 311
337 337 338 337 336 336 336 335 334 333 332 331 331 331 328 329 329 330 329 328 326 324 323 321 319 320 320 319 319 319 318 317 316 318 322 322 321 319 317 316 315 313 312
334 335 335 335 334 334 335 335 334 334 332 331 331 331 331 331 327 327 327 325 324 321 319 317 316 317 318 317 317 317 316 315 314 316 320 321 321 321 319 318 317 314 315
328 329 330 331 330 329 333 334 333 333 333 332 332 331 331 330 330 326 325 324 322 320 318 316 315 315 315 314 314 314 313 313 313 314 317 319 319 319 320 319 317 316 312
332 330 329 331 332 329 326 329 328 330 332 333 333 332 332 329 328 325 324 325 323 316 316 315 313 312 311 312 311 311 312 312 312 312 316 318 317 317 319 318 314 313 312
323 325 328 330 326 328 331 332 332 332 332 332 332 331 332 331 329 327 325 323 321 318 314 310 310 311 310 309 308 308 309 310 312 314 315 313 313 315 314 312 311 309 308
322 320 319 325 328 329 330 330 331 332 332 332 332 331 330 330 329 327 325 324 319 318 316 310 306 307 308 306 304 305 306 308 310 310 308 310 310 310 311 310 307 305 303
319 321 320 318 318 320 322 324 325 327 328 330 330 329 328 328 327 325 324 323 321 318 316 308 306 303 303 303 302 303 304 303 304 306 307 307 307 307 306 305 304 303 301
313 313 314 315 316 317 317 319 321 323 326 327 328 328 327 326 324 323 322 320 319 318 314 308 304 303 302 302 302 301 301 301 303 303 303 303 303 303 303 302 300 300 299
312 313 313 314 314 315 316 318 318 319 321 323 323 322 323 320 317 317 316 314 314 313 311 302 303 301 301 300 300 299 300 300 301 301 299 300 299 299 298 298 297 297 296
309 309 310 311 311 312 313 314 316 317 318 318 318 316 316 314 312 311 311 310 309 309 309 303 300 300 299 299 299 298 297 297 297 297 297 296 296 296 295 295 294 294 294
305 305 306 307 307 309 310 310 311 312 312 312 312 311 311 309 308 308 307 306 305 305 306 305 299 298 297 297 296 296 295 294 294 293 292 292 291 290 290 289 289 288 288
303 303 303 303 304 304 305 307 307 308 308 307 307 307 306 305 305 304 303 303 302 302 302 302 299 297 297 296 296 295 293 291 290 289 289 288 288 287 287 286 286 286 286
302 301 301 301 301 302 302 302 303 304 304 304 303 303 302 302 301 301 301 300 299 300 300 298 297 296 295 294 294 293 292 290 289 288 287 287 288 287 287 288 287 287 286
300 300 299 299 299 299 299 299 300 301 300 300 299 299 299 299 298 297 297 297 298 298 299 297 297 296 295 294 292 290 289 289 289 288 287 286 288 287 288 288 288 288 287
299 299 298 298 297 297 297 297 298 298 299 298 297 297 295 294 294 295 294 295 296 296 297 297 296 294 292 290 289 288 287 287 287 287 287 288 288 288 288 288 288 287 287
297 296 297 296 296 296 296 295 296 296 296 295 294 294 294 293 293 291 290 288 288 289 290 290 290 289 289 288 288 287 286 287 287 287 286 287 288 288 288 288 287 287 286
297 297 296 295 295 295 294 294 293 293 293 292 292 292 292 291 290 288 287 288 287 286 287 287 288 287 287 286 286 285 287 288 288 287 286 286 287 287 286 287 287 286 285
296 295 294 294 293 294 293 292 292 292 291 290 289 289 289 288 286 288 287 287 287 286 285 285 284 284 284 284 286 287 287 287 287 287 286 285 284 284 285 287 286 286 286

GFSMA_925_thetae_099.txt.gz
Theta_e
334 337 335 333 333 333 333 333 335 334 332 331 328 324 322 324 325 326 326 327 327 325 325 328 327 325 324 322 320 319 317 316 318 318 318 318 318 318 318 318 318 318 318
330 334 335 335 334 334 334 334 335 333 332 332 331 330 326 322 323 325 325 327 328 327 326 326 331 329 327 325 323 321 320 318 317 315 315 316 315 315 315 316 316 316 317
331 330 333 336 336 336 335 335 333 331 330 329 330 329 328 324 324 325 327 328 328 328 328 327 325 330 330 328 327 325 322 320 319 317 315 312 311 313 313 313 314 314 315
330 332 333 335 334 333 332 332 331 330 329 327 327 327 326 325 323 326 327 328 328 328 328 328 328 326 327 328 329 328 326 324 322 320 318 315 310 308 309 310 311 313 314
329 330 332 332 333 332 331 330 330 330 329 328 328 328 328 329 329 328 328 329 329 329 328 328 328 327 326 325 325 329 327 326 324 322 321 320 316 310 310 312 311 313 313
334 332 332 331 330 329 330 330 330 330 330 330 330 330 329 329 330 330 330 330 330 330 329 328 326 326 326 326 324 325 328 326 325 324 322 321 318 315 312 313 312 313 313
335 335 334 333 333 329 329 330 330 331 330 330 330 330 330 329 329 329 330 330 330 329 328 326 325 325 324 324 324 323 323 325 325 324 324 322 321 317 315 314 313 313 312
336 335 335 335 334 332 331 331 331 331 331 331 330 329 327 330 331 331 330 330 330 328 326 325 324 323 322 322 323 322 323 323 322 322 323 323 322 320 317 316 315 314 313
336 336 335 335 336 335 334 334 333 332 332 331 331 330 326 327 327 329 329 326 325 324 323 322 321 320 320 320 320 320 319 318 317 316 318 322 321 322 320 319 316 315 313
335 335 336 335 335 335 335 334 334 334 333 331 331 330 330 330 327 328 325 322 321 321 320 320 319 318 317 317 318 318 317 316 315 315 318 320 320 321 322 320 318 316 314
329 328 329 333 332 331 331 330 329 330 330 332 331 330 330 329 329 326 327 321 319 318 318 317 317 317 317 316 316 316 315 313 313 313 314 318 318 319 319 320 319 318 316
329 329 330 330 330 329 327 327 327 326 327 328 331 330 329 329 328 326 324 323 322 315 314 313 314 314 314 313 313 312 312 312 311 312 314 318 316 318 318 321 320 317 314
328 324 325 327 327 324 321 320 322 326 324 326 329 331 330 332 330 328 326 324 320 314 312 310 311 311 310 310 310 309 310 311 313 315 316 315 313 315 317 315 314 312 311
322 322 323 323 323 322 321 320 318 321 326 327 330 329 328 329 330 330 328 323 320 316 312 310 307 308 307 306 306 306 307 310 312 312 311 309 312 313 313 312 310 309 307
322 323 323 323 322 322 323 325 326 326 326 328 329 330 330 329 329 328 327 326 322 318 316 307 306 305 303 303 303 304 304 305 306 307 307 307 307 308 308 307 306 304 303
319 318 317 316 315 315 316 317 319 320 320 324 326 327 329 328 327 326 325 324 323 320 316 309 306 304 303 302 303 302 302 302 302 303 304 304 304 304 304 303 302 301 300
313 313 313 314 314 315 315 316 316 316 317 319 322 322 324 323 323 321 321 321 320 318 314 304 304 302 302 301 302 301 300 301 301 301 301 300 301 300 299 298 298 297 297
310 310 311 312 312 313 313 314 315 316 318 318 318 319 320 319 318 318 316 314 314 313 312 304 302 300 300 300 300 300 299 298 298 297 298 298 297 296 296 295 295 295 295
306 306 307 307 308 308 309 310 311 313 315 315 315 314 315 314 313 312 311 310 310 309 307 306 300 299 299 298 298 297 296 295 295 294 294 293 292 291 291 291 290 289 289
305 304 304 304 304 304 305 306 308 309 311 311 311 310 310 310 310 309 308 307 305 304 304 304 301 299 298 296 296 296 293 292 290 290 289 289 288 287 287 287 287 286 286
302 302 302 302 302 302 303 303 304 305 306 307 306 306 306 305 305 305 304 303 302 302 302 301 300 297 296 295 296 295 293 291 289 289 288 287 288 287 287 288 287 287 286
302 301 301 300 300 301 300 300 301 301 302 302 303 302 302 301 301 300 300 300 300 300 300 299 299 297 295 295 294 292 291 289 288 288 287 286 287 287 288 288 288 288 287
300 300 300 299 299 299 298 297 298 299 300 300 300 299 298 298 298 298 297 297 297 298 299 298 297 296 295 294 293 290 289 288 288 287 287 288 288 287 288 288 288 287 287
299 299 299 298 298 297 298 297 296 297 297 298 297 297 296 295 294 294 295 295 295 295 296 297 296 295 293 292 290 289 287 286 287 287 286 288 288 288 287 287 287 287 286
297 298 298 297 296 296 296 296 295 295 295 295 295 294 294 294 292 291 290 289 288 289 288 289 289 289 289 288 287 286 286 286 287 287 286 286 286 287 286 287 287 286 285
296 296 296 296 295 295 294 294 293 292 292 292 292 291 292 292 290 289 288 287 287 287 287 287 287 287 287 287 286 286 286 288 287 286 286 286 285 285 285 286 286 286 286